#timestamp,LO_Frequency,Hit,StdDev 
1605780015.5,286046980.9,N
1605780035.4,286046981.3,N
1605780055.2,286046979.4,Y
1605780075.0,286046988.4,P
1605780075.9,286046988.4,P
1605780095.8,286046988.2,P
1605780115.6,286046987.4,Y
1605780135.4,286046995.7,P
1605780155.3,286047000.9,N
1605780175.1,286046991.0,N
1605780195.9,286046985.4,Y
1605780215.7,286046987.6,P
1605780235.5,286046987.0,P
1605780255.4,286046988.1,P
1605780275.2,286046986.6,Y
1605780295.1,286046993.5,P
1605780296.0,286046993.5,P
1605780315.8,286046993.4,P
1605780335.6,286046995.9,N
1605780355.5,286046996.5,N
1605780375.3,286046999.6,N
1605780395.2,286047001.2,N
1605780415.9,286046996.7,N
1605780435.7,286046994.9,N
1605780455.6,286046996.1,N
1605780475.4,286046994.4,N
1605780495.2,286046992.0,N
1605780515.1,286046992.7,N
1605780516.0,286046992.7,N
1605780535.8,286046991.1,Y
1605780555.7,286046994.2,P
1605780575.5,286046995.2,P
1605780595.3,286046994.0,P
1605780615.2,286046994.1,Y
1605780635.0,286046999.1,P
1605780635.9,286046999.1,N
1605780655.8,286046999.1,N
1605780675.6,286046993.3,Y
1605780695.4,286046994.0,P
1605780715.3,286046993.8,P
1605780735.1,286046988.6,P
1605780755.8,286046991.6,N
1605780775.7,286046989.3,Y
1605780795.5,286046997.2,P
1605780815.4,286046997.5,N
1605780835.2,286046995.4,N
1605780855.0,286046997.6,N
1605780855.9,286046997.6,N
1605780875.8,286046995.4,N
1605780895.6,286046995.5,N
1605780915.5,286046996.4,N
1605780935.3,286046994.0,Y
1605780955.1,286047005.4,P
1605780975.9,286047014.8,P
1605780995.7,286047019.1,N
1605781015.5,286047014.7,N
1605781035.4,286047013.2,N
1605781055.2,286047018.5,N
1605781075.1,286047014.1,N
1605781076.0,286047014.1,N
1605781095.8,286047022.4,Y
1605781115.6,286047021.6,P
1605781135.5,286047018.2,P
1605781155.3,286047025.0,P
1605781175.2,286047026.2,Y
1605781195.9,286047008.0,P
1605781215.7,286047011.6,N
1605781235.6,286047017.4,P
1605781255.4,286047022.0,Y
1605781275.2,286046983.7,P
1605781295.1,286046982.6,N
1605781296.0,286046982.6,N
1605781315.8,286046991.0,N
1605781335.7,286046997.3,N
1605781355.5,286046991.5,N
1605781375.3,286046994.4,N
1605781395.2,286047000.1,N
1605781415.0,286046994.2,N
1605781415.9,286046994.2,N
1605781435.8,286047006.2,N
1605781455.6,286047003.3,N
1605781475.4,286046996.2,N
1605781495.3,286047012.3,N
1605781515.1,286047029.5,Y
1605781535.9,286047016.1,P
1605781555.7,286047007.5,N
1605781575.5,286047004.8,N
1605781595.4,286047008.7,N
1605781615.2,286047011.4,N
1605781635.1,286047022.4,Y
1605781636.0,286047022.4,P
1605781655.8,286047015.7,N
1605781675.6,286047013.0,N
1605781695.5,286047008.8,N
1605781715.3,286047016.9,Y
1605781735.1,286047008.0,P
1605781755.9,286047015.6,P
1605781775.7,286047014.4,P
1605781795.6,286047018.3,Y
1605781815.4,286047005.3,P
1605781835.2,286047007.2,N
1605781855.1,286047028.3,P
1605781856.0,286047028.3,Y
1605781875.8,286046984.5,P
1605781895.7,286046964.1,N
1605781915.5,286046943.7,N
1605781935.3,286046930.9,N
1605781955.2,286046926.0,N
1605781975.0,286046919.9,N
1605781975.9,286046919.9,N
1605781995.8,286046919.3,N
1605782015.6,286046912.1,N
1605782035.4,286046905.3,N
1605782055.3,286046902.8,Y
1605782075.1,286046962.5,P
1605782095.9,286046962.0,P
1605782115.7,286046959.9,P
1605782135.5,286046956.8,Y
1605782155.4,286046997.1,P
1605782175.2,286046996.3,N
1605782195.1,286046995.5,N
1605782196.0,286046995.5,N
1605782215.8,286046994.9,N
1605782235.6,286046993.3,N
1605782255.5,286046993.8,N
1605782275.3,286046989.0,N
1605782295.2,286046987.9,N
1605782315.9,286046987.4,N
1605782335.7,286046988.9,N
1605782355.6,286046990.6,N
1605782375.4,286046987.3,N
1605782395.2,286046986.5,N
1605782415.1,286046984.1,N
1605782416.0,286046984.1,N
1605782435.8,286046989.9,N
1605782455.7,286046989.3,N
1605782475.5,286046989.9,N
1605782495.3,286046986.8,N
1605782515.2,286046984.4,N
1605782535.0,286046982.3,N
1605782535.9,286046982.3,N
1605782555.8,286046981.7,N
1605782575.6,286046980.4,N
1605782595.4,286046980.6,N
1605782615.3,286046983.0,N
1605782635.1,286046983.4,N
1605782655.9,286046983.1,N
1605782675.7,286046984.1,N
1605782695.5,286046986.3,N
1605782715.4,286046984.9,Y
1605782735.2,286046995.9,P
1605782755.0,286046994.0,N
1605782755.9,286046994.0,N
1605782775.8,286046995.7,N
1605782795.6,286046997.8,N
1605782815.5,286046996.4,N
1605782835.3,286046992.5,N
1605782855.2,286046993.8,N
1605782875.9,286046992.3,N
1605782895.7,286046999.5,N
1605782915.6,286046998.7,N
1605782935.4,286046995.7,N
1605782955.3,286046994.4,N
1605782975.1,286046992.6,N
1605782976.0,286046992.6,N
1605782995.8,286046991.2,Y
1605783015.7,286046999.1,P
1605783035.2,286047001.6,N
1605783055.0,286047002.3,N
1605783055.9,286047002.3,N
1605783075.8,286047007.5,N
1605783095.6,286047010.4,N
1605783115.5,286047010.9,N
1605783135.3,286047011.9,N
1605783155.1,286047012.4,N
1605783175.9,286047009.7,N
1605783195.7,286047010.7,N
1605783215.6,286047007.1,N
1605783235.4,286047004.9,N
1605783255.2,286047004.4,N
1605783275.1,286047000.0,N
1605783276.0,286047000.0,N
1605783295.8,286046999.5,N
1605783315.6,286046994.3,N
1605783335.5,286046994.8,N
1605783355.3,286046990.7,N
1605783375.2,286046993.6,N
1605783395.0,286046993.8,N
1605783395.9,286046993.8,N
1605783415.7,286046996.8,N
1605783435.6,286046996.5,N
1605783455.4,286047000.1,N
1605783475.3,286047002.6,N
1605783495.1,286047003.9,N
1605783496.0,286047003.9,N
1605783515.8,286046999.6,N
1605783535.7,286047002.7,N
1605783555.5,286047002.0,N
1605783575.4,286047000.8,N
1605783595.2,286046998.6,N
